sat.trackr.live / text

‹ back to catalog

STARLINK-11161 [DTC]

NORAD 60124 · 2024-118M

PAYLOAD ACTIVE UNKNOWN

§ Identity

Operator
Country
US
Launch date
2024-06-24
Launch site
AFWTR
Launch vehicle
Mass (kg)
RCS (m²)

Purposes: comms

External: N2YO · Heavens-Above · Gunter

§ Orbital elements

Epoch: 2026-09-21T12:10:18.293088Z

Period
91.74 min
Inclination
53.1578°
Eccentricity
0.0000805
Mean motion
15.69730804 rev/d
Perigee alt
359.1 km
Apogee alt
360.2 km
Semi-major
6,737.8 km
B*
-1.0379e-4
RAAN
336.3170°
Arg perigee
72.1551°
Mean anomaly
287.9555°
Rev number
12,874

§ Raw data

STARLINK-11161 [DTC]1 60124U 24118M   26264.50715617 -.00013152  00000+0 -10379-3 0  99972 60124  53.1578 336.3170 0000805  72.1551 287.9555 15.69730804128747

JSON: /api/v1/satellites/60124 · /tle

For live sub-satellite position, see the globe view (requires WebGL).

§ Visibility from observer

Set your observer location to see the next 7 days of passes ≥ 10°. The values pass through the URL so the page stays shareable.

No JS? Fill the form by hand. The geolocation button needs JavaScript.